Back to catalog

ATLAS 2AS CENTAUR R/B

AliveHEO
NORAD 26072·ROCKET BODY·🇺🇸 United States

Launched Feb 3, 2000 from Cape Canaveral Space Force Station

Loading…

Next Passes (next 24 hours)

TLE

FreshSource: Space-Track

Epoch: Sep 14, 2026, 08:46 UTC

1 26072U 00007B   26257.36580632  .00031215  00000-0  83198-3 0  9993
2 26072  18.0739 325.0413 3033471  34.0568 342.1871  9.35227962364860

Track ATLAS 2AS CENTAUR R/B in real time with AllMySat

Download on the App Store